New Roads False River Regiona, LA

8:27 AM CDT on July 21, 2019 (GMT -0500)
False River

Weather History for KHZR - May, 2019

Change the Weather History Date:

Sunday, May 12, 2019

  Actual Average (WUND) Record (WUND)
Temperature  
Mean Temperature 72 °F -  
Max Temperature 75 °F - - (-1)
Min Temperature 66 °F - - (-1)
Cooling Degree Days 6    
Growing Degree Days 22 (Base 50)    
Moisture  
Dew Point 65 °F    
Average Humidity 80    
Maximum Humidity 94    
Minimum Humidity 69    
Precipitation  
Precipitation 0.00 in - - ()
Sea Level Pressure  
Sea Level Pressure 29.84 in    
Wind  
Wind Speed 6 mph (NNW)    
Max Wind Speed 9 mph    
Max Gust Speed -    
Visibility 10 miles    
Events      
Averages and records for this station are not official NWS values.
T = Trace of Precipitation, MM = Missing Value Source: NWS Daily Summary

Daily Weather History Graph

Daily Weather History Graph

Search for Another Location

Airport or City:

Astronomy

May. 12, 2019 Rise Set
Actual Time 6:13 AM CDT 7:51 PM CDT
Civil Twilight 5:47 AM CDT 8:17 PM CDT
Nautical Twilight 5:15 AM CDT 8:49 PM CDT
Astronomical Twilight 4:42 AM CDT 9:22 PM CDT
Moon 1:29 PM CDT (5/12) 2:16 AM CDT (5/12)
Length of Visible Light 14h 30m
Length of Day
13h 38m
First Quarter, 58% of the Moon is Illuminated
May 12
First Quarter
May 18
Full
May 26
Last Quarter
Jun 3
New
Jun 10
First Quarter

Hourly Weather History & Observations

Time (CDT) Temp. Dew Point Humidity Pressure Visibility Wind Dir Wind Speed Gust Speed Precip Events Conditions
9:15 AM 68.0 °F 66.2 °F 94% 29.84 in 10.0 mi NNW 6.9 mph - N/A   Overcast
9:36 AM 68.0 °F 66.2 °F 94% 29.85 in 10.0 mi North 8.1 mph - N/A   Overcast
10:15 AM 69.8 °F 66.2 °F 88% 29.86 in 10.0 mi NNW 5.8 mph - N/A   Overcast
10:55 AM 69.8 °F 66.2 °F 88% 29.87 in 10.0 mi WNW 5.8 mph - N/A   Overcast
11:14 AM 69.8 °F 66.2 °F 88% 29.88 in 10.0 mi NNW 8.1 mph - N/A   Overcast
12:15 PM 71.6 °F 68.0 °F 88% 29.87 in 10.0 mi Calm Calm - N/A   Overcast
1:16 PM 75.2 °F 66.2 °F 73% 29.85 in 10.0 mi NNW 6.9 mph - N/A   Scattered Clouds
2:14 PM 75.2 °F 66.2 °F 73% 29.84 in 10.0 mi NW 6.9 mph - N/A   Overcast
2:36 PM 75.2 °F 64.4 °F 69% 29.84 in 10.0 mi NW 8.1 mph - N/A   Mostly Cloudy
2:56 PM 75.2 °F 66.2 °F 73% 29.84 in 10.0 mi NW 6.9 mph - N/A   Mostly Cloudy
3:16 PM 75.2 °F 66.2 °F 73% 29.84 in 10.0 mi NNW 8.1 mph - N/A   Scattered Clouds
3:36 PM 75.2 °F 64.4 °F 69% 29.83 in 10.0 mi NW 9.2 mph - N/A   Clear
3:55 PM 75.2 °F 64.4 °F 69% 29.82 in 10.0 mi NNW 8.1 mph - N/A   Clear
4:37 PM 75.2 °F 64.4 °F 69% 29.82 in 10.0 mi NW 8.1 mph - N/A   Clear
5:16 PM 75.2 °F 64.4 °F 69% 29.82 in 10.0 mi NNW 8.1 mph - N/A   Clear
5:54 PM 75.2 °F 64.4 °F 69% 29.81 in 10.0 mi NNW 8.1 mph - N/A   Clear
6:34 PM 75.2 °F 64.4 °F 69% 29.81 in 10.0 mi NNW 5.8 mph - N/A   Clear
7:15 PM 73.4 °F 62.6 °F 69% 29.81 in 10.0 mi NNW 6.9 mph - N/A   Clear
7:55 PM 71.6 °F 64.4 °F 78% 29.82 in 10.0 mi NNW 3.5 mph - N/A   Clear
8:14 PM 69.8 °F 66.2 °F 88% 29.83 in 10.0 mi NNW 4.6 mph - N/A   Clear
8:36 PM 69.8 °F 66.2 °F 88% 29.83 in 10.0 mi NW 3.5 mph - N/A   Clear
8:56 PM 68.0 °F 64.4 °F 88% 29.84 in 10.0 mi Calm Calm - N/A   Clear
9:16 PM 69.8 °F 64.4 °F 83% 29.85 in 10.0 mi Calm Calm - N/A   Clear
10:35 PM 68.0 °F 64.4 °F 88% 29.89 in 10.0 mi Calm Calm - N/A   Clear
11:36 PM 66.2 °F 64.4 °F 94% 29.90 in 10.0 mi WNW 3.5 mph - N/A   Clear